Tracking 31027 objects as of 19-Jul-2025
HD Live streaming from Space Station
objects crossing your sky now

IRIDIUM 33 DEB

Track IRIDIUM 33 DEB now!
10-day predictions


NORAD ID: 35480
Int'l Code: 1997-051QA
Perigee: 728.5 km
Apogee: 744.6 km
Inclination: 86.4 °
Period: 99.4 minutes
Semi major axis: 7107 km
RCS: 0.0115 m2 (small)
Launch date: September 14, 1997
Source: United States (US)
Launch site: TYURATAM MISSILE AND SPACE COMPLEX (TTMTR)

Note: This is SATELLITE DEBRIS
Your satellite tracking list
FLOCK 4Q 34
Track 1 satellite(s)




NASA's NSSDC Master Catalog

Two Line Element Set (TLE):
1 35480U 97051QA  25198.14639977  .00001271  00000-0  33091-3 0  9993
2 35480  86.3546  89.2930 0011309 239.5772 120.4315 14.48855114848797
Source of the keplerian elements: AFSPC